Time,TemperatureF,DewpointF,PressureIn,WindDirection,WindDirectionDegrees,WindSpeedMPH,WindSpeedGustMPH,Humidity,HourlyPrecipIn,Conditions,Clouds,dailyrainin,SoftwareType,DateUTC
2013-04-09 00:00:00,51.1,41.3,30.05,SSW,211,2.0,3.0,69,0.00,,,0.00,Wunderground v.1.15,2013-04-09 04:00:00,
2013-04-09 00:05:00,51.1,41.3,30.04,ESE,123,2.0,3.0,69,0.00,,,0.00,Wunderground v.1.15,2013-04-09 04:05:00,
2013-04-09 00:10:00,51.0,41.2,30.05,SW,215,2.0,2.0,69,0.00,,,0.00,Wunderground v.1.15,2013-04-09 04:10:00,
2013-04-09 00:20:00,50.8,40.6,30.05,SW,215,2.0,3.0,68,0.00,,,0.00,Wunderground v.1.15,2013-04-09 04:20:00,
2013-04-09 00:30:00,50.6,40.4,30.04,SE,127,1.0,2.0,68,0.00,,,0.00,Wunderground v.1.15,2013-04-09 04:30:00,
2013-04-09 00:35:00,50.5,40.3,30.04,SE,130,1.0,2.0,68,0.00,,,0.00,Wunderground v.1.15,2013-04-09 04:35:00,
2013-04-09 00:45:00,50.3,40.1,30.04,SW,225,2.0,2.0,68,0.00,,,0.00,Wunderground v.1.15,2013-04-09 04:45:00,
2013-04-09 00:50:00,50.3,40.1,30.04,SSE,165,2.0,2.0,68,0.00,,,0.00,Wunderground v.1.15,2013-04-09 04:50:00,
2013-04-09 01:00:00,50.3,40.1,30.03,SE,128,1.0,1.0,68,0.00,,,0.00,Wunderground v.1.15,2013-04-09 05:00:00,
2013-04-09 01:05:00,50.2,40.0,30.03,SSW,209,1.0,1.0,68,0.00,,,0.00,Wunderground v.1.15,2013-04-09 05:05:00,
2013-04-09 01:10:00,50.1,39.9,30.03,SSE,159,2.0,2.0,68,0.00,,,0.00,Wunderground v.1.15,2013-04-09 05:10:00,
2013-04-09 01:20:00,50.1,39.9,30.02,SW,217,1.0,2.0,68,0.00,,,0.00,Wunderground v.1.15,2013-04-09 05:20:00,
2013-04-09 01:25:00,50.1,39.6,30.02,South,169,1.0,2.0,67,0.00,,,0.00,Wunderground v.1.15,2013-04-09 05:25:00,
2013-04-09 01:35:00,50.0,39.8,30.01,East,101,2.0,2.0,68,0.00,,,0.00,Wunderground v.1.15,2013-04-09 05:35:00,
2013-04-09 01:45:00,49.9,39.4,30.01,West,277,2.0,4.0,67,0.00,,,0.00,Wunderground v.1.15,2013-04-09 05:45:00,
2013-04-09 01:50:00,49.9,39.8,30.01,East,92,2.0,2.0,68,0.00,,,0.00,Wunderground v.1.15,2013-04-09 05:50:00,
2013-04-09 01:55:00,49.9,39.8,30.00,SW,226,2.0,2.0,68,0.00,,,0.00,Wunderground v.1.15,2013-04-09 05:55:00,
2013-04-09 02:05:00,49.8,39.7,30.00,SW,214,1.0,6.0,68,0.00,,,0.00,Wunderground v.1.15,2013-04-09 06:05:00,
2013-04-09 02:15:00,49.7,39.6,29.99,SSW,194,2.0,2.0,68,0.00,,,0.00,Wunderground v.1.15,2013-04-09 06:15:00,
2013-04-09 02:20:00,49.6,39.5,29.99,ENE,57,2.0,4.0,68,0.00,,,0.00,Wunderground v.1.15,2013-04-09 06:20:00,
2013-04-09 02:30:00,49.5,39.7,29.99,East,90,2.0,2.0,69,0.00,,,0.00,Wunderground v.1.15,2013-04-09 06:30:00,
2013-04-09 02:35:00,49.4,39.7,29.98,SW,228,3.0,3.0,69,0.00,,,0.00,Wunderground v.1.15,2013-04-09 06:35:00,
2013-04-09 02:45:00,49.4,39.7,29.98,SW,221,2.0,2.0,69,0.00,,,0.00,Wunderground v.1.15,2013-04-09 06:45:00,
2013-04-09 02:55:00,49.3,39.6,29.97,SW,217,2.0,2.0,69,0.00,,,0.00,Wunderground v.1.15,2013-04-09 06:55:00,
2013-04-09 03:00:00,49.3,39.9,29.97,East,89,2.0,2.0,70,0.00,,,0.00,Wunderground v.1.15,2013-04-09 07:00:00,
2013-04-09 03:05:00,49.3,39.9,29.98,SW,230,1.0,2.0,70,0.00,,,0.00,Wunderground v.1.15,2013-04-09 07:05:00,
2013-04-09 03:15:00,49.2,40.2,29.97,SW,218,1.0,4.0,71,0.00,,,0.00,Wunderground v.1.15,2013-04-09 07:15:00,
2013-04-09 03:20:00,49.2,40.2,29.97,SSW,194,2.0,3.0,71,0.00,,,0.00,Wunderground v.1.15,2013-04-09 07:20:00,
2013-04-09 03:30:00,49.1,40.1,29.96,WSW,241,2.0,2.0,71,0.00,,,0.00,Wunderground v.1.15,2013-04-09 07:30:00,
2013-04-09 03:35:00,49.0,40.0,29.95,ESE,121,2.0,2.0,71,0.00,,,0.00,Wunderground v.1.15,2013-04-09 07:35:00,
2013-04-09 03:45:00,48.8,40.2,29.94,SSW,212,2.0,2.0,72,0.00,,,0.00,Wunderground v.1.15,2013-04-09 07:45:00,
2013-04-09 03:50:00,48.8,40.2,29.94,SSE,165,1.0,1.0,72,0.00,,,0.00,Wunderground v.1.15,2013-04-09 07:50:00,
2013-04-09 04:00:00,48.8,40.2,29.94,South,178,1.0,1.0,72,0.00,,,0.00,Wunderground v.1.15,2013-04-09 08:00:00,
2013-04-09 04:10:00,48.8,40.5,29.93,SE,144,2.0,2.0,73,0.00,,,0.00,Wunderground v.1.15,2013-04-09 08:10:00,
2013-04-09 04:15:00,48.7,40.4,29.92,SE,132,2.0,2.0,73,0.00,,,0.00,Wunderground v.1.15,2013-04-09 08:15:00,
2013-04-09 04:20:00,48.7,40.4,29.91,SE,124,2.0,2.0,73,0.00,,,0.00,Wunderground v.1.15,2013-04-09 08:20:00,
2013-04-09 04:30:00,48.5,40.6,29.91,ESE,119,2.0,2.0,74,0.00,,,0.00,Wunderground v.1.15,2013-04-09 08:30:00,
2013-04-09 04:35:00,48.5,40.6,29.91,ESE,110,1.0,2.0,74,0.00,,,0.00,Wunderground v.1.15,2013-04-09 08:35:00,
2013-04-09 04:45:00,48.6,40.7,29.92,South,189,1.0,1.0,74,0.00,,,0.00,Wunderground v.1.15,2013-04-09 08:45:00,
2013-04-09 04:50:00,48.7,40.8,29.91,ESE,119,1.0,1.0,74,0.00,,,0.00,Wunderground v.1.15,2013-04-09 08:50:00,
2013-04-09 05:00:00,48.8,41.2,29.90,South,177,1.0,1.0,75,0.00,,,0.00,Wunderground v.1.15,2013-04-09 09:00:00,
2013-04-09 05:10:00,48.8,41.2,29.90,SW,217,1.0,2.0,75,0.00,,,0.00,Wunderground v.1.15,2013-04-09 09:10:00,
2013-04-09 05:20:00,48.9,42.0,29.92,SW,215,2.0,2.0,77,0.31,,,0.01,Wunderground v.1.15,2013-04-09 09:20:00,
2013-04-09 05:30:00,48.3,42.7,29.90,SSE,160,1.0,1.0,81,0.26,,,0.05,Wunderground v.1.15,2013-04-09 09:30:00,
2013-04-09 05:40:00,47.7,43.4,29.95,NNW,327,1.0,1.0,85,0.08,,,0.06,Wunderground v.1.15,2013-04-09 09:40:00,
2013-04-09 05:50:00,47.3,43.3,29.92,ENE,66,1.0,1.0,86,0.05,,,0.07,Wunderground v.1.15,2013-04-09 09:50:00,
2013-04-09 05:55:00,47.2,43.2,29.91,ENE,78,1.0,2.0,86,0.05,,,0.07,Wunderground v.1.15,2013-04-09 09:55:00,
2013-04-09 06:05:00,47.0,43.3,29.90,SSE,168,1.0,1.0,87,0.00,,,0.08,Wunderground v.1.15,2013-04-09 10:05:00,
2013-04-09 06:15:00,46.9,43.5,29.89,SSE,168,0.0,1.0,88,0.00,,,0.08,Wunderground v.1.15,2013-04-09 10:15:00,
2013-04-09 06:20:00,46.9,43.5,29.89,SE,140,1.0,1.0,88,0.00,,,0.08,Wunderground v.1.15,2013-04-09 10:20:00,
2013-04-09 06:30:00,47.1,44.0,29.89,SE,142,1.0,1.0,89,0.00,,,0.08,Wunderground v.1.15,2013-04-09 10:30:00,
2013-04-09 06:40:00,47.2,44.4,29.89,SE,142,0.0,1.0,90,0.00,,,0.08,Wunderground v.1.15,2013-04-09 10:40:00,
2013-04-09 06:55:00,47.4,44.6,29.89,SE,142,0.0,1.0,90,0.00,,,0.08,Wunderground v.1.15,2013-04-09 10:55:00,
2013-04-09 07:00:00,47.4,44.6,29.89,SE,142,0.0,0.0,90,0.00,,,0.08,Wunderground v.1.15,2013-04-09 11:00:00,
2013-04-09 07:05:00,47.6,44.8,29.89,SE,142,0.0,0.0,90,0.00,,,0.08,Wunderground v.1.15,2013-04-09 11:05:00,
2013-04-09 07:15:00,47.7,44.9,29.89,SSE,159,1.0,1.0,90,0.00,,,0.08,Wunderground v.1.15,2013-04-09 11:15:00,
2013-04-09 07:25:00,48.0,45.5,29.88,SE,144,0.0,1.0,91,0.00,,,0.08,Wunderground v.1.15,2013-04-09 11:25:00,
2013-04-09 07:35:00,48.4,45.9,29.88,SE,144,0.0,1.0,91,0.00,,,0.08,Wunderground v.1.15,2013-04-09 11:35:00,
2013-04-09 07:40:00,48.4,45.9,29.88,South,182,1.0,1.0,91,0.00,,,0.08,Wunderground v.1.15,2013-04-09 11:40:00,
2013-04-09 07:50:00,48.6,46.1,29.87,South,182,0.0,0.0,91,0.00,,,0.08,Wunderground v.1.15,2013-04-09 11:50:00,
2013-04-09 07:55:00,48.6,46.1,29.87,South,184,1.0,1.0,91,0.00,,,0.08,Wunderground v.1.15,2013-04-09 11:55:00,
2013-04-09 08:05:00,48.9,46.4,29.87,ESE,106,1.0,1.0,91,0.00,,,0.08,Wunderground v.1.15,2013-04-09 12:05:00,
2013-04-09 08:15:00,49.1,46.9,29.86,SSW,208,1.0,2.0,92,0.00,,,0.08,Wunderground v.1.15,2013-04-09 12:15:00,
2013-04-09 08:30:00,49.3,47.1,29.85,SW,217,2.0,3.0,92,0.00,,,0.08,Wunderground v.1.15,2013-04-09 12:30:00,
2013-04-09 08:40:00,49.8,47.9,29.86,SW,218,1.0,1.0,93,0.00,,,0.08,Wunderground v.1.15,2013-04-09 12:40:00,
2013-04-09 08:55:00,50.0,48.1,29.85,WSW,244,2.0,2.0,93,0.00,,,0.08,Wunderground v.1.15,2013-04-09 12:55:00,
2013-04-09 09:05:00,50.2,48.3,29.85,WSW,247,2.0,2.0,93,0.00,,,0.08,Wunderground v.1.15,2013-04-09 13:05:00,
2013-04-09 09:15:00,50.7,48.7,29.84,WNW,297,1.0,2.0,93,0.00,,,0.08,Wunderground v.1.15,2013-04-09 13:15:00,
2013-04-09 09:25:00,51.2,49.0,29.83,WSW,240,2.0,2.0,92,0.00,,,0.08,Wunderground v.1.15,2013-04-09 13:25:00,
2013-04-09 09:30:00,51.4,49.2,29.83,WSW,242,2.0,2.0,92,0.00,,,0.08,Wunderground v.1.15,2013-04-09 13:30:00,
2013-04-09 09:35:00,51.8,49.3,29.84,SW,228,2.0,2.0,91,0.00,,,0.08,Wunderground v.1.15,2013-04-09 13:35:00,
2013-04-09 09:45:00,52.8,49.9,29.83,West,279,2.0,3.0,90,0.00,,,0.08,Wunderground v.1.15,2013-04-09 13:45:00,
2013-04-09 09:50:00,53.2,50.0,29.83,West,271,3.0,3.0,89,0.00,,,0.08,Wunderground v.1.15,2013-04-09 13:50:00,
2013-04-09 09:55:00,53.8,50.3,29.83,West,260,3.0,3.0,88,0.00,,,0.08,Wunderground v.1.15,2013-04-09 13:55:00,
2013-04-09 10:05:00,55.8,51.4,29.83,West,276,2.0,2.0,85,0.00,,,0.08,Wunderground v.1.15,2013-04-09 14:05:00,
2013-04-09 10:10:00,56.3,51.5,29.83,WNW,293,2.0,3.0,84,0.00,,,0.08,Wunderground v.1.15,2013-04-09 14:10:00,
2013-04-09 10:20:00,56.7,51.6,29.83,West,275,2.0,2.0,83,0.00,,,0.08,Wunderground v.1.15,2013-04-09 14:20:00,
2013-04-09 10:25:00,56.8,51.7,29.84,NW,325,2.0,4.0,83,0.00,,,0.08,Wunderground v.1.15,2013-04-09 14:25:00,
2013-04-09 10:35:00,56.6,51.5,29.84,West,266,3.0,3.0,83,0.00,,,0.08,Wunderground v.1.15,2013-04-09 14:35:00,
2013-04-09 10:45:00,55.7,50.6,29.85,North,355,3.0,3.0,83,0.00,,,0.08,Wunderground v.1.15,2013-04-09 14:45:00,
2013-04-09 10:55:00,56.0,51.2,29.85,North,355,2.0,3.0,84,0.00,,,0.08,Wunderground v.1.15,2013-04-09 14:55:00,
2013-04-09 11:05:00,57.8,52.3,29.85,WNW,282,2.0,3.0,82,0.00,,,0.08,Wunderground v.1.15,2013-04-09 15:05:00,
2013-04-09 11:10:00,58.8,52.6,29.84,North,9,2.0,4.0,80,0.00,,,0.08,Wunderground v.1.15,2013-04-09 15:10:00,
2013-04-09 11:20:00,60.5,52.9,29.84,WNW,296,2.0,2.0,76,0.00,,,0.08,Wunderground v.1.15,2013-04-09 15:20:00,
2013-04-09 11:25:00,61.5,53.1,29.84,NNE,13,3.0,3.0,74,0.00,,,0.08,Wunderground v.1.15,2013-04-09 15:25:00,
2013-04-09 11:35:00,63.1,52.8,29.83,WNW,300,3.0,3.0,69,0.00,,,0.08,Wunderground v.1.15,2013-04-09 15:35:00,
2013-04-09 11:45:00,63.7,53.3,29.84,NNE,30,3.0,3.0,69,0.00,,,0.08,Wunderground v.1.15,2013-04-09 15:45:00,
2013-04-09 11:55:00,64.0,52.8,29.83,West,273,3.0,5.0,67,0.00,,,0.08,Wunderground v.1.15,2013-04-09 15:55:00,
2013-04-09 12:05:00,66.3,53.3,29.83,NNW,337,3.0,3.0,63,0.00,,,0.08,Wunderground v.1.15,2013-04-09 16:05:00,
2013-04-09 12:15:00,67.7,53.3,29.83,NNE,32,4.0,6.0,60,0.00,,,0.08,Wunderground v.1.15,2013-04-09 16:15:00,
2013-04-09 12:20:00,68.3,53.4,29.83,West,265,3.0,6.0,59,0.00,,,0.08,Wunderground v.1.15,2013-04-09 16:20:00,
2013-04-09 12:30:00,68.1,49.8,29.82,WSW,254,4.0,4.0,52,0.00,,,0.08,Wunderground v.1.15,2013-04-09 16:30:00,
2013-04-09 12:40:00,68.4,49.6,29.82,NNW,327,5.0,5.0,51,0.00,,,0.08,Wunderground v.1.15,2013-04-09 16:40:00,
2013-04-09 12:45:00,68.6,49.2,29.83,North,351,5.0,5.0,50,0.00,,,0.08,Wunderground v.1.15,2013-04-09 16:45:00,
2013-04-09 12:50:00,68.8,49.4,29.83,WNW,298,4.0,4.0,50,0.00,,,0.08,Wunderground v.1.15,2013-04-09 16:50:00,
2013-04-09 13:00:00,69.0,48.5,29.82,NNW,338,6.0,6.0,48,0.00,,,0.08,Wunderground v.1.15,2013-04-09 17:00:00,
2013-04-09 13:05:00,69.7,49.1,29.83,WNW,302,5.0,7.0,48,0.00,,,0.08,Wunderground v.1.15,2013-04-09 17:05:00,
2013-04-09 13:15:00,69.9,48.2,29.82,WSW,240,6.0,6.0,46,0.00,,,0.08,Wunderground v.1.15,2013-04-09 17:15:00,
2013-04-09 13:25:00,70.7,47.7,29.82,WSW,244,5.0,7.0,44,0.00,,,0.08,Wunderground v.1.15,2013-04-09 17:25:00,
2013-04-09 13:35:00,70.7,47.7,29.82,West,277,5.0,5.0,44,0.00,,,0.08,Wunderground v.1.15,2013-04-09 17:35:00,
2013-04-09 13:45:00,70.5,47.5,29.82,West,259,5.0,5.0,44,0.00,,,0.08,Wunderground v.1.15,2013-04-09 17:45:00,
2013-04-09 13:55:00,70.6,47.6,29.83,SW,236,5.0,7.0,44,0.00,,,0.08,Wunderground v.1.15,2013-04-09 17:55:00,
2013-04-09 14:05:00,71.4,47.1,29.83,NW,325,5.0,13.0,42,0.00,,,0.08,Wunderground v.1.15,2013-04-09 18:05:00,
2013-04-09 14:15:00,70.5,46.3,29.83,NNW,347,5.0,7.0,42,0.00,,,0.08,Wunderground v.1.15,2013-04-09 18:15:00,
2013-04-09 14:20:00,70.6,45.7,29.83,NNW,335,5.0,7.0,41,0.00,,,0.08,Wunderground v.1.15,2013-04-09 18:20:00,
2013-04-09 14:30:00,71.5,46.6,29.83,West,279,4.0,8.0,41,0.00,,,0.08,Wunderground v.1.15,2013-04-09 18:30:00,
2013-04-09 14:35:00,71.1,46.2,29.83,West,267,5.0,9.0,41,0.00,,,0.08,Wunderground v.1.15,2013-04-09 18:35:00,
2013-04-09 14:45:00,71.1,45.5,29.84,NNW,345,5.0,5.0,40,0.00,,,0.08,Wunderground v.1.15,2013-04-09 18:45:00,
2013-04-09 14:55:00,70.4,46.2,29.85,West,277,5.0,5.0,42,0.00,,,0.08,Wunderground v.1.15,2013-04-09 18:55:00,
2013-04-09 15:05:00,70.1,45.9,29.85,WNW,293,5.0,8.0,42,0.00,,,0.08,Wunderground v.1.15,2013-04-09 19:05:00,
2013-04-09 15:10:00,70.0,45.8,29.85,WNW,290,5.0,5.0,42,0.00,,,0.08,Wunderground v.1.15,2013-04-09 19:10:00,
2013-04-09 15:15:00,70.1,45.9,29.85,WNW,283,4.0,8.0,42,0.00,,,0.08,Wunderground v.1.15,2013-04-09 19:15:00,
2013-04-09 15:25:00,70.1,45.9,29.85,NNW,331,4.0,6.0,42,0.00,,,0.08,Wunderground v.1.15,2013-04-09 19:25:00,
2013-04-09 15:30:00,70.0,45.2,29.85,North,355,4.0,8.0,41,0.00,,,0.08,Wunderground v.1.15,2013-04-09 19:30:00,
2013-04-09 15:40:00,70.6,45.7,29.85,North,5,4.0,5.0,41,0.00,,,0.08,Wunderground v.1.15,2013-04-09 19:40:00,
2013-04-09 15:45:00,70.2,45.4,29.85,WSW,242,4.0,5.0,41,0.00,,,0.08,Wunderground v.1.15,2013-04-09 19:45:00,
2013-04-09 15:55:00,70.2,46.0,29.85,NE,46,5.0,5.0,42,0.00,,,0.08,Wunderground v.1.15,2013-04-09 19:55:00,
2013-04-09 16:05:00,70.9,46.0,29.85,West,279,3.0,4.0,41,0.00,,,0.08,Wunderground v.1.15,2013-04-09 20:05:00,
2013-04-09 16:15:00,70.2,44.1,29.86,West,278,5.0,5.0,39,0.00,,,0.08,Wunderground v.1.15,2013-04-09 20:15:00,
2013-04-09 16:25:00,69.7,44.3,29.86,West,275,5.0,8.0,40,0.00,,,0.08,Wunderground v.1.15,2013-04-09 20:25:00,
2013-04-09 16:35:00,70.0,44.6,29.86,NNW,343,4.0,7.0,40,0.00,,,0.08,Wunderground v.1.15,2013-04-09 20:35:00,
2013-04-09 16:50:00,69.6,44.2,29.87,North,5,4.0,5.0,40,0.00,,,0.08,Wunderground v.1.15,2013-04-09 20:50:00,
2013-04-09 17:00:00,69.4,44.7,29.86,SW,227,3.0,3.0,41,0.00,,,0.08,Wunderground v.1.15,2013-04-09 21:00:00,
2013-04-09 17:05:00,69.1,44.4,29.86,NW,325,3.0,4.0,41,0.00,,,0.08,Wunderground v.1.15,2013-04-09 21:05:00,
2013-04-09 17:10:00,69.3,44.6,29.86,NNW,346,3.0,4.0,41,0.00,,,0.08,Wunderground v.1.15,2013-04-09 21:10:00,
2013-04-09 17:20:00,68.8,44.8,29.87,WNW,302,3.0,5.0,42,0.00,,,0.08,Wunderground v.1.15,2013-04-09 21:20:00,
2013-04-09 17:30:00,68.4,43.8,29.89,North,351,3.0,3.0,41,0.00,,,0.08,Wunderground v.1.15,2013-04-09 21:30:00,
2013-04-09 17:35:00,68.4,44.4,29.90,WNW,284,3.0,3.0,42,0.00,,,0.08,Wunderground v.1.15,2013-04-09 21:35:00,
2013-04-09 17:40:00,68.3,44.3,29.90,West,275,3.0,7.0,42,0.00,,,0.08,Wunderground v.1.15,2013-04-09 21:40:00,
2013-04-09 17:50:00,68.0,44.0,29.90,WNW,295,3.0,3.0,42,0.00,,,0.08,Wunderground v.1.15,2013-04-09 21:50:00,
2013-04-09 18:00:00,67.7,44.4,29.92,WNW,286,4.0,4.0,43,0.00,,,0.08,Wunderground v.1.15,2013-04-09 22:00:00,
2013-04-09 18:05:00,67.6,44.3,29.92,NNW,347,4.0,4.0,43,0.00,,,0.08,Wunderground v.1.15,2013-04-09 22:05:00,
2013-04-09 18:15:00,67.2,43.3,29.91,WNW,298,3.0,3.0,42,0.00,,,0.08,Wunderground v.1.15,2013-04-09 22:15:00,
2013-04-09 18:20:00,66.9,43.7,29.91,WNW,283,3.0,3.0,43,0.00,,,0.08,Wunderground v.1.15,2013-04-09 22:20:00,
2013-04-09 18:30:00,66.2,43.6,29.92,NNW,329,2.0,2.0,44,0.00,,,0.08,Wunderground v.1.15,2013-04-09 22:30:00,
2013-04-09 18:40:00,65.6,43.1,29.92,West,273,2.0,6.0,44,0.00,,,0.08,Wunderground v.1.15,2013-04-09 22:40:00,
2013-04-09 18:50:00,65.3,43.4,29.92,NW,305,2.0,2.0,45,0.00,,,0.08,Wunderground v.1.15,2013-04-09 22:50:00,
2013-04-09 18:55:00,65.1,43.2,29.91,NNW,344,2.0,2.0,45,0.00,,,0.08,Wunderground v.1.15,2013-04-09 22:55:00,
2013-04-09 19:00:00,64.9,43.0,29.91,WNW,284,1.0,1.0,45,0.00,,,0.08,Wunderground v.1.15,2013-04-09 23:00:00,
2013-04-09 19:10:00,64.5,43.8,29.91,WNW,298,1.0,1.0,47,0.00,,,0.08,Wunderground v.1.15,2013-04-09 23:10:00,
2013-04-09 19:20:00,64.1,43.4,29.91,West,280,1.0,1.0,47,0.00,,,0.08,Wunderground v.1.15,2013-04-09 23:20:00,
2013-04-09 19:25:00,63.8,43.2,29.92,NW,325,1.0,1.0,47,0.00,,,0.08,Wunderground v.1.15,2013-04-09 23:25:00,
2013-04-09 19:35:00,61.1,45.3,29.93,ESE,115,2.0,4.0,56,0.00,,,0.08,Wunderground v.1.15,2013-04-09 23:35:00,
2013-04-09 19:40:00,59.2,45.3,29.93,ESE,113,4.0,5.0,60,0.00,,,0.08,Wunderground v.1.15,2013-04-09 23:40:00,
2013-04-09 19:50:00,55.9,44.7,29.94,ENE,76,5.0,5.0,66,0.00,,,0.08,Wunderground v.1.15,2013-04-09 23:50:00,
2013-04-09 20:00:00,54.4,44.8,29.94,ESE,121,4.0,4.0,70,0.00,,,0.08,Wunderground v.1.15,2013-04-10 00:00:00,
2013-04-09 20:10:00,53.4,44.2,29.94,East,81,3.0,5.0,71,0.00,,,0.08,Wunderground v.1.15,2013-04-10 00:10:00,
2013-04-09 20:15:00,52.8,44.0,29.95,ESE,119,4.0,5.0,72,0.00,,,0.08,Wunderground v.1.15,2013-04-10 00:15:00,
2013-04-09 20:20:00,52.4,44.0,29.95,East,80,3.0,3.0,73,0.00,,,0.08,Wunderground v.1.15,2013-04-10 00:20:00,
2013-04-09 20:30:00,51.9,43.9,29.96,ESE,121,3.0,3.0,74,0.00,,,0.08,Wunderground v.1.15,2013-04-10 00:30:00,
2013-04-09 20:40:00,51.4,43.7,29.98,SSE,150,2.0,2.0,75,0.00,,,0.08,Wunderground v.1.15,2013-04-10 00:40:00,
2013-04-09 20:50:00,50.9,43.6,29.98,SE,142,2.0,2.0,76,0.00,,,0.08,Wunderground v.1.15,2013-04-10 00:50:00,
2013-04-09 20:55:00,50.6,43.7,29.99,ESE,107,1.0,2.0,77,0.00,,,0.08,Wunderground v.1.15,2013-04-10 00:55:00,
2013-04-09 21:05:00,50.3,43.7,29.99,SE,138,2.0,2.0,78,0.00,,,0.08,Wunderground v.1.15,2013-04-10 01:05:00,
2013-04-09 21:15:00,50.1,43.5,30.00,SE,126,2.0,2.0,78,0.00,,,0.08,Wunderground v.1.15,2013-04-10 01:15:00,
2013-04-09 21:25:00,49.8,43.5,29.99,SE,142,2.0,2.0,79,0.00,,,0.08,Wunderground v.1.15,2013-04-10 01:25:00,
2013-04-09 21:35:00,49.6,43.4,29.99,SE,145,2.0,3.0,79,0.00,,,0.08,Wunderground v.1.15,2013-04-10 01:35:00,
2013-04-09 21:40:00,49.4,43.2,29.99,SSE,147,2.0,2.0,79,0.00,,,0.08,Wunderground v.1.15,2013-04-10 01:40:00,
2013-04-09 21:50:00,49.2,43.3,29.98,ESE,119,2.0,2.0,80,0.00,,,0.08,Wunderground v.1.15,2013-04-10 01:50:00,
2013-04-09 22:00:00,49.3,43.1,29.99,SE,128,3.0,6.0,79,0.00,,,0.08,Wunderground v.1.15,2013-04-10 02:00:00,
2013-04-09 22:05:00,49.3,43.1,29.98,SE,144,3.0,6.0,79,0.00,,,0.08,Wunderground v.1.15,2013-04-10 02:05:00,
2013-04-09 22:20:00,49.5,43.3,29.98,ESE,114,2.0,2.0,79,0.00,,,0.08,Wunderground v.1.15,2013-04-10 02:20:00,
2013-04-09 22:25:00,49.6,43.4,29.98,ESE,115,2.0,5.0,79,0.00,,,0.08,Wunderground v.1.15,2013-04-10 02:25:00,
2013-04-09 22:35:00,49.7,43.1,29.99,ENE,66,3.0,3.0,78,0.00,,,0.08,Wunderground v.1.15,2013-04-10 02:35:00,
2013-04-09 22:40:00,49.8,43.2,29.99,ESE,119,2.0,2.0,78,0.00,,,0.08,Wunderground v.1.15,2013-04-10 02:40:00,
2013-04-09 22:50:00,49.9,43.3,29.99,SSE,160,2.0,2.0,78,0.00,,,0.08,Wunderground v.1.15,2013-04-10 02:50:00,
2013-04-09 23:00:00,49.9,43.3,29.98,ESE,118,2.0,2.0,78,0.00,,,0.08,Wunderground v.1.15,2013-04-10 03:00:00,
2013-04-09 23:05:00,49.9,43.3,29.96,SE,127,3.0,3.0,78,0.00,,,0.08,Wunderground v.1.15,2013-04-10 03:05:00,
2013-04-09 23:15:00,49.7,43.1,29.95,ESE,120,4.0,4.0,78,0.00,,,0.08,Wunderground v.1.15,2013-04-10 03:15:00,
2013-04-09 23:20:00,49.7,43.1,29.96,ESE,113,3.0,4.0,78,0.00,,,0.08,Wunderground v.1.15,2013-04-10 03:20:00,
2013-04-09 23:25:00,49.6,43.0,29.96,East,99,2.0,4.0,78,0.00,,,0.08,Wunderground v.1.15,2013-04-10 03:25:00,
2013-04-09 23:40:00,49.3,42.7,29.95,SE,126,3.0,5.0,78,0.00,,,0.08,Wunderground v.1.15,2013-04-10 03:40:00,
2013-04-09 23:50:00,49.2,42.6,29.93,SSE,158,4.0,5.0,78,0.00,,,0.08,Wunderground v.1.15,2013-04-10 03:50:00,
2013-04-09 23:55:00,49.1,42.9,29.93,ESE,120,4.0,5.0,79,0.00,,,0.08,Wunderground v.1.15,2013-04-10 03:55:00,